Regional Weather Roundup
Issued by NWS

Home | Current Version | Previous Version | Graphics & Text | Print | Product List | Glossary On
Versions: 1 2 3 4 5 6 7 8 9 10 11 12 13 14 15 16 17 18 19 20 21 22 23 24 25 26 27 28 29 30 31 32 33 34 35 36 37 38 39 40 41 42 43 44 45 46 47 48 49 50
000
ASUS45 KABQ 301201
RWRNM
WEATHER ROUNDUP FOR NEW MEXICO
NATIONAL WEATHER SERVICE ALBUQUERQUE NM
600 AM MDT WED JUL 30 2014

NOTE: "FAIR" MEANS FEW OR NO CLOUDS BELOW 12,000 FEET AGL WITH NO
       SIGNIFICANT WEATHER OR OBSTRUCTIONS TO VISION.

      THIS PRODUCT IS RELEASED AS TWO VERSIONS.  ONE VERSION NEAR
      THE TOP OF THE HOUR CONTAINING PRELIMINARY DATA FROM ALBUQUERQUE
      AND OTHER STATIONS.  A FINAL VERSION WITH ADDITIONAL DATA IS
      ISSUED ABOUT 10 MINUTES AFTER THE HOUR.

NMZ501-503-504-510>518-301300-
NORTHWEST PLATEAU/NORTHCENTRAL MOUNTAINS

CITY           SKY/WX    TMP DP  RH WIND       PRES   REMARKS
FARMINGTON     CLEAR     63  52  67 CALM      30.20R
6HR MIN TEMP:  59; 6HR MAX TEMP:  73;

LOS ALAMOS     PTCLDY    60  53  78 N5        30.31R
SANTA FE       NOT AVBL
TAOS           MOCLDY    55  52  88 SE5       30.32S
ANGEL FIRE     FOG       49  48  97 W3        30.39S VSB 1/2

$$
NMZ402-403-502-505>509-301300-
WESTCENTRAL MOUNTAINS/SOUTHWEST MOUNTAINS

CITY           SKY/WX    TMP DP  RH WIND       PRES   REMARKS
GALLUP         CLEAR     58  54  86 CALM      30.28R
6HR MIN TEMP:  58; 6HR MAX TEMP:  71; 6HR PCP:  0.01;


$$
NMZ407-409-411-412-301300-
SOUTHERN DESERTS

CITY           SKY/WX    TMP DP  RH WIND       PRES   REMARKS
LORDSBURG      FAIR      64  54  68 CALM      30.13R
DEMING         CLEAR     67  61  81 NW6       30.12R
6HR MIN TEMP:  67; 6HR MAX TEMP:  74;

LAS CRUCES     CLEAR     68  60  75 CALM      30.13S
HOLLOMAN AFB   PTCLDY    68  64  88 CALM      30.09R
T OR C         CLEAR     66  62  87 N3        30.15R
6HR MIN TEMP:  66; 6HR MAX TEMP:  70;


$$
NMZ519>523-301300-
CENTRAL VALLEYS/CENTRAL HIGHLANDS

CITY           SKY/WX    TMP DP  RH WIND       PRES   REMARKS
ALBUQUERQUE    PTCLDY    66  60  81 W6        30.20R
6HR MIN TEMP:  65; 6HR MAX TEMP:  70; 6HR PCP: TRACE;

DOUBLE EAGLE   PTCLDY    63  57  82 W8        30.23R
CLINES CORNERS PTCLDY    56  54  93 W9        30.28R
6HR MIN TEMP:  56; 6HR MAX TEMP:  65;

BELEN          FAIR      63  62  96 W3        30.20R
6HR MIN TEMP:  63; 6HR MAX TEMP:  68;

SOCORRO        FAIR      64  59  83 CALM      30.18R
6HR MIN TEMP:  63; 6HR MAX TEMP:  70;


$$
NMZ524>526-539-540-301300-
SOUTHCENTRAL MOUNTAINS

CITY           SKY/WX    TMP DP  RH WIND       PRES   REMARKS
RUIDOSO        NOT AVBL

$$
NMZ527>531-301300-
NORTHEAST HIGHLANDS/NORTHEAST PLAINS

CITY           SKY/WX    TMP DP  RH WIND       PRES   REMARKS
LAS VEGAS      CLEAR     56  50  80 E8        30.26R
6HR MIN TEMP:  54; 6HR MAX TEMP:  61;

RATON          PTCLDY    60  55  83 N17       30.23S
6HR MIN TEMP:  59; 6HR MAX TEMP:  61;

CLAYTON        MOCLDY    64  58  80 N10       30.15S
6HR MIN TEMP:  64; 6HR MAX TEMP:  69; 6HR PCP:  0.59;


$$
NMZ532>537-301300-
EASTCENTRAL PLAINS

CITY           SKY/WX    TMP DP  RH WIND       PRES   REMARKS
TUCUMCARI      CLEAR     68  63  84 CALM      30.08R
6HR MIN TEMP:  68; 6HR MAX TEMP:  71;

CANNON AFB     CLEAR     64  63  94 S6        30.11S
6HR MIN TEMP:  64; 6HR MAX TEMP:  67;

CLOVIS AIRPORT NOT AVBL

$$
NMZ028-029-538-301300-
SOUTHEAST PLAINS

CITY           SKY/WX    TMP DP  RH WIND       PRES   REMARKS
ROSWELL        PTCLDY    70  67  90 CALM      30.06R
6HR MIN TEMP:  69; 6HR MAX TEMP:  74;

ARTESIA        PTCLDY    68  57  68 NW5       30.06R
CARLSBAD       MOCLDY    75  49  39 S7        30.02R
6HR MIN TEMP:  74; 6HR MAX TEMP:  85;

HOBBS          PTCLDY    70  52  52 S5        30.08


$$



USA.gov is the U.S. government's official web portal to all federal, state and local government web resources and services.